Regional Weather Roundup
Issued by NWS Glasgow, MT

Home | Current Version | Previous Version | Text Only | Print | Product List | Glossary On
Versions: 1 2 3 4 5 6 7 8 9 10 11 12 13 14 15 16 17 18 19 20 21 22 23 24 25 26 27 28 29 30 31 32 33 34 35 36 37 38 39 40 41 42 43 44 45 46 47 48 49 50
419
ASUS45 KGGW 241715
RWRGGW
HOURLY REGIONAL WEATHER ROUNDUP FOR NORTHEAST MONTANA
NATIONAL WEATHER SERVICE GLASGOW MONTANA
1100 AM MDT SUN JUL 24 2016

NOTE: "FAIR" INDICATES FEW OR NO CLOUDS BELOW 12,000 FEET WITH NO
SIGNIFICANT WEATHER AND/OR OBSTRUCTIONS TO VISISBILITY.

NORTHEAST MONTANA


CITY           SKY/WX    TMP DP  RH WIND       PRES   REMARKS
GLASGOW        SUNNY     77  55  46 S7        30.04F
PLENTYWOOD       N/A     77  51  40 W7G15       N/A
WOLF POINT     MOSUNNY   80  53  39 W6        30.05F
JORDAN           N/A     83  47  28 W12       30.06S
WINNETT          N/A     81  42  25 NE3         N/A
SIDNEY         SUNNY     79  52  38 VRB7      30.06F
GLENDIVE       SUNNY     80  52  37 S8        30.09F
MALTA            N/A     78  58  49 SW3         N/A
SCOBEY           N/A     90  65  43 CALM      30.04F
OPHEIM           N/A     72  50  46 SW5       29.83S

FORT PECK REPORTS


CITY           SKY/WX    TMP DP  RH WIND       PRES   REMARKS
FORT PECK        N/A     76  55  48 S5          N/A
THE PINES        N/A     81  50  33 SE3         N/A

SOUTHEAST MONTANA


CITY           SKY/WX    TMP DP  RH WIND       PRES   REMARKS
BILLINGS       SUNNY     75  47  36 S8        30.12F
MILES CITY     SUNNY     82  46  28 S8        30.08F
BAKER          SUNNY     79  46  31 VRB5      30.13S
LIVINGSTON     SUNNY     75  38  26 W8        30.17F

CENTRAL MONTANA


CITY           SKY/WX    TMP DP  RH WIND       PRES   REMARKS
HAVRE            N/A     76  47  35 SW12      30.05F
LEWISTOWN      SUNNY     73  41  31 N5        30.15F
GREAT FALLS    SUNNY     73  38  27 W6        30.12F
CUT BANK       SUNNY     73  41  31 N7        30.11F
HELENA         SUNNY     75  41  29 E5        30.15F
BUTTE          SUNNY     68  35  29 VRB3      30.24F
BOZEMAN        SUNNY     70  40  33 VRB3      30.19F

WESTERN MONTANA


CITY           SKY/WX    TMP DP  RH WIND       PRES   REMARKS
MISSOULA       SUNNY     69  43  38 CALM      30.17F
KALISPELL      NOT AVBL

NORTH DAKOTA


CITY           SKY/WX    TMP DP  RH WIND       PRES   REMARKS
WILLISTON      SUNNY     78  53  41 W12       30.06S
DICKINSON      SUNNY     75  52  44 W8        30.08S
MINOT          SUNNY     79  55  43 W20       30.00R
BISMARCK       SUNNY     78  57  48 W12       30.05S

SOUTHERN SASKATCHEWAN


CITY           SKY/WX    TMP DP  RH WIND       PRES   REMARKS
REGINA         MOSUNNY   70  55  60 W14G22    30.00F
ESTEVAN        MOSUNNY   73  55  53 NW18      30.02R
SWIFT CURRENT  SUNNY     72  54  53 SE5       30.03S





USA.gov is the U.S. government's official web portal to all federal, state and local government web resources and services.